Location: Bittelbronn
(48.4454°N, 8.5870°E)
Time: 19:19:14
(UTC+00:00)

CZ-2D R/B - Pass Details

Date: 23 May 2024
Orbit: 790 x 843 km, 98.8° (Epoch: 24 June)

Event Time Altitude Azimuth Distance (km) Brightness Sun altitude
Rises 00:10:53 0° 27° (NNE) 3,412 6.8 -20.1°
Reaches altitude 10° 00:14:00 10° 45° (NE) 2,468 5.5 -20.0°
Maximum altitude 00:17:50 19° 90° (E) 1,891 4.2 -19.8°
Enters shadow 00:21:27 11° 133° (SE) 2,397 4.3 -19.7°
